{"data":{"norad_id":57527,"epoch":"2026-09-20T21:39:41.994432Z","epoch_age_seconds":92864,"freshness":"FRESH","line1":"1 57527U 23115G   26263.90256938  .00026868  00000+0  96062-3 0  9994","line2":"2 57527  42.9969 339.3735 0002184 334.6750  25.3994 15.28312974173109","mean_motion":15.28312974,"eccentricity":0.0002184,"inclination_deg":42.9969,"raan_deg":339.3735,"arg_perigee_deg":334.675,"mean_anomaly_deg":25.3994,"bstar":0.00096062,"rev_number":17310,"period_min":94.221538683346,"perigee_km":479.35718152877,"apogee_km":482.35318931536,"semimajor_km":6858.9921854221,"source":"CELESTRAK","updated_at":"2026-09-21T09:00:33.637921Z"}}